Wayne, NE

11:18 AM CDT on March 30, 2017 (GMT -0500)
Wayne Municipal

Weather History for KLCG - October, 2011

Change the Weather History Date:

Wednesday, October 12, 2011

  Actual Average (KOFK) Record (KOFK)
Temperature  
Mean Temperature 60 °F -  
Max Temperature 68 °F 65 °F 91 °F (1975)
Min Temperature 51 °F 39 °F 18 °F (1917)
Degree Days  
Heating Degree Days 6    
Growing Degree Days 10 (Base 50)    
Moisture  
Dew Point 52 °F    
Average Humidity 78    
Maximum Humidity 100    
Minimum Humidity 46    
Precipitation  
Precipitation 0.36 in - - ()
Sea Level Pressure  
Sea Level Pressure 29.74 in    
Wind  
Wind Speed 7 mph (WNW)    
Max Wind Speed 17 mph    
Max Gust Speed 26 mph    
Visibility 10 miles    
Events Rain , Thunderstorm    
Averages and records for this station are not official NWS values.
T = Trace of Precipitation, MM = Missing Value Source: NWS Daily Summary

Daily Weather History Graph

Daily Weather History Graph

Search for Another Location

Airport or City:

Trip Planner

Search our weather history database for the weather conditions in past years. The results will help you decide how hot, cold, wet, or windy it might be!

Date:

Astronomy

Oct. 12, 2011 Rise Set
Actual Time 7:36 AM CDT 6:51 PM CDT
Civil Twilight 7:08 AM CDT 7:19 PM CDT
Nautical Twilight 6:36 AM CDT 7:51 PM CDT
Astronomical Twilight 6:03 AM CDT 8:24 PM CDT
Moon 6:51 PM CDT (10/12) 8:14 AM CDT (10/12)
Length of Visible Light 12h 10m
Length of Day
11h 14m
Full, 100% of the Moon is Illuminated
Oct 12
Full
Oct 19
Last Quarter
Oct 26
New
Nov 2
First Quarter
Nov 10
Full

Hourly Weather History & Observations

Time (CDT) Temp. Dew Point Humidity Pressure Visibility Wind Dir Wind Speed Gust Speed Precip Events Conditions
12:15 AM 59.0 °F 55.4 °F 88% 29.74 in 10.0 mi SSW 3.5 mph - N/A Thunderstorm Overcast
12:35 AM 59.0 °F 55.4 °F 88% 29.76 in 10.0 mi WSW 4.6 mph - N/A Rain Light Rain
12:55 AM 59.0 °F 55.4 °F 88% 29.75 in 5.0 mi West 8.1 mph - 0.08 in Rain Heavy Rain
1:15 AM 59.0 °F 57.2 °F 94% 29.74 in 7.0 mi SSW 4.6 mph - 0.08 in Rain Rain
1:35 AM 59.0 °F 57.2 °F 94% 29.74 in 7.0 mi South 5.8 mph - 0.11 in Rain Rain
1:55 AM 59.0 °F 57.2 °F 94% 29.72 in 10.0 mi Calm Calm - 0.13 in Rain Rain
2:35 AM 59.0 °F 57.2 °F 94% 29.72 in 10.0 mi South 13.8 mph - 0.01 in Rain Rain
2:55 AM 57.2 °F 55.4 °F 94% 29.72 in 7.0 mi South 11.5 mph - 0.06 in Rain Rain
3:15 AM 57.2 °F 55.4 °F 94% 29.72 in 10.0 mi South 11.5 mph - 0.05 in Rain Rain
3:35 AM 57.2 °F 53.6 °F 88% 29.72 in 10.0 mi South 12.7 mph - 0.07 in Rain Rain
3:55 AM 55.4 °F 53.6 °F 94% 29.71 in 10.0 mi South 9.2 mph - 0.09 in Rain Light Rain
4:15 AM 55.4 °F 53.6 °F 94% 29.71 in 10.0 mi South 8.1 mph - N/A   Mostly Cloudy
4:35 AM 55.4 °F 53.6 °F 94% 29.70 in 10.0 mi South 4.6 mph - N/A   Scattered Clouds
4:55 AM 55.4 °F 53.6 °F 94% 29.70 in 10.0 mi South 5.8 mph - N/A   Clear
5:35 AM 53.6 °F 53.6 °F 100% 29.70 in 10.0 mi SSW 3.5 mph - N/A   Clear
5:55 AM 55.4 °F 53.6 °F 94% 29.70 in 10.0 mi SSW 3.5 mph - N/A   Clear
6:35 AM 53.6 °F 51.8 °F 94% 29.71 in 10.0 mi Calm Calm - N/A   Scattered Clouds
6:55 AM 51.8 °F 51.8 °F 100% 29.71 in 10.0 mi Calm Calm - N/A   Scattered Clouds
7:15 AM 51.8 °F 51.8 °F 100% 29.71 in 10.0 mi Calm Calm - N/A   Scattered Clouds
7:35 AM 51.8 °F 51.8 °F 100% 29.71 in 10.0 mi Calm Calm - N/A   Mostly Cloudy
7:55 AM 51.8 °F 50.0 °F 94% 29.71 in 10.0 mi North 4.6 mph - N/A   Scattered Clouds
8:15 AM 51.8 °F 51.8 °F 100% 29.72 in 10.0 mi North 3.5 mph - N/A   Scattered Clouds
8:35 AM 51.8 °F 51.8 °F 100% 29.73 in 10.0 mi Calm Calm - N/A   Scattered Clouds
8:55 AM 51.8 °F 51.8 °F 100% 29.73 in 10.0 mi Calm Calm - N/A   Clear
9:15 AM 53.6 °F 53.6 °F 100% 29.73 in 10.0 mi Calm Calm - N/A   Scattered Clouds
9:35 AM 55.4 °F 55.4 °F 100% 29.73 in 10.0 mi SW 3.5 mph - N/A   Scattered Clouds
9:55 AM 59.0 °F 55.4 °F 88% 29.73 in 10.0 mi WSW 3.5 mph - N/A   Mostly Cloudy
10:15 AM 60.8 °F 55.4 °F 82% 29.73 in 10.0 mi WNW 3.5 mph - N/A   Scattered Clouds
10:35 AM 60.8 °F 57.2 °F 88% 29.74 in 10.0 mi West 4.6 mph - N/A   Mostly Cloudy
10:55 AM 62.6 °F 55.4 °F 77% 29.74 in 10.0 mi NW 3.5 mph - N/A   Scattered Clouds
11:15 AM 62.6 °F 55.4 °F 77% 29.74 in 10.0 mi NNW 10.4 mph - N/A   Mostly Cloudy
11:35 AM 62.6 °F 55.4 °F 77% 29.74 in 10.0 mi NNW 6.9 mph - N/A   Mostly Cloudy
11:55 AM 62.6 °F 55.4 °F 77% 29.74 in 10.0 mi North 4.6 mph - N/A   Scattered Clouds
12:15 PM 66.2 °F 55.4 °F 68% 29.74 in 10.0 mi NW 4.6 mph - N/A   Scattered Clouds
12:35 PM 66.2 °F 55.4 °F 68% 29.74 in 10.0 mi NW 5.8 mph - N/A   Overcast
12:55 PM 68.0 °F 55.4 °F 64% 29.74 in 10.0 mi NNW 8.1 mph - N/A   Overcast
1:15 PM 68.0 °F 55.4 °F 64% 29.74 in 10.0 mi NW 13.8 mph 18.4 mph N/A   Overcast
1:35 PM 66.2 °F 55.4 °F 68% 29.74 in 10.0 mi NW 16.1 mph 24.2 mph N/A   Mostly Cloudy
2:15 PM 64.4 °F 55.4 °F 73% 29.74 in 10.0 mi NNW 15.0 mph 20.7 mph N/A   Mostly Cloudy
2:35 PM 64.4 °F 53.6 °F 68% 29.73 in 10.0 mi NNW 10.4 mph 23.0 mph N/A   Mostly Cloudy
2:55 PM 66.2 °F 53.6 °F 64% 29.73 in 10.0 mi NW 11.5 mph 17.3 mph N/A   Mostly Cloudy
3:15 PM 68.0 °F 50.0 °F 52% 29.73 in 10.0 mi NNW 16.1 mph 20.7 mph N/A   Mostly Cloudy
3:35 PM 68.0 °F 48.2 °F 49% 29.73 in 10.0 mi NW 15.0 mph 25.3 mph N/A   Mostly Cloudy
3:55 PM 64.4 °F 50.0 °F 59% 29.74 in 10.0 mi NW 17.3 mph 26.5 mph N/A   Overcast
4:35 PM 64.4 °F 48.2 °F 56% 29.74 in 10.0 mi NNW 12.7 mph 20.7 mph N/A   Overcast
4:55 PM 68.0 °F 46.4 °F 46% 29.74 in 10.0 mi NNW 17.3 mph 25.3 mph N/A   Mostly Cloudy
5:35 PM 68.0 °F 46.4 °F 46% 29.74 in 10.0 mi NW 12.7 mph 23.0 mph N/A   Clear
5:55 PM 66.2 °F 44.6 °F 46% 29.75 in 10.0 mi NW 15.0 mph 23.0 mph N/A   Clear
6:15 PM 64.4 °F 46.4 °F 52% 29.76 in 10.0 mi NW 15.0 mph 24.2 mph N/A   Clear
6:35 PM 62.6 °F 46.4 °F 55% 29.76 in 10.0 mi NW 11.5 mph 20.7 mph N/A   Clear
6:55 PM 62.6 °F 46.4 °F 55% 29.77 in 10.0 mi NW 11.5 mph 17.3 mph N/A   Clear
7:15 PM 60.8 °F 44.6 °F 55% 29.78 in 10.0 mi NW 8.1 mph - N/A   Clear
7:35 PM 60.8 °F 44.6 °F 55% 29.78 in 10.0 mi NW 8.1 mph - N/A   Clear
7:55 PM 59.0 °F 44.6 °F 59% 29.80 in 10.0 mi WNW 9.2 mph - N/A   Clear
8:15 PM 59.0 °F 44.6 °F 59% 29.80 in 10.0 mi WNW 9.2 mph - N/A   Clear
8:35 PM 57.2 °F 44.6 °F 63% 29.80 in 10.0 mi WNW 9.2 mph - N/A   Clear
8:55 PM 57.2 °F 44.6 °F 63% 29.80 in 10.0 mi WNW 9.2 mph - N/A   Clear
9:15 PM 57.2 °F 44.6 °F 63% 29.81 in 10.0 mi WNW 11.5 mph 17.3 mph N/A   Clear
9:35 PM 55.4 °F 44.6 °F 67% 29.81 in 10.0 mi NW 9.2 mph - N/A   Clear
9:55 PM 55.4 °F 44.6 °F 67% 29.81 in 10.0 mi WNW 8.1 mph - N/A   Clear
10:15 PM 53.6 °F 44.6 °F 72% 29.81 in 10.0 mi WNW 8.1 mph - N/A   Clear
10:35 PM 53.6 °F 44.6 °F 72% 29.82 in 10.0 mi WNW 6.9 mph - N/A   Clear
10:55 PM 53.6 °F 44.6 °F 72% 29.82 in 10.0 mi WNW 8.1 mph - N/A   Clear
11:15 PM 53.6 °F 44.6 °F 72% 29.82 in 10.0 mi WNW 9.2 mph - N/A   Clear
11:35 PM 53.6 °F 42.8 °F 67% 29.82 in 10.0 mi WNW 6.9 mph - N/A   Clear
11:55 PM 53.6 °F 42.8 °F 67% 29.81 in 10.0 mi WNW 6.9 mph - N/A   Clear